Woodland, NC

8:50 AM EST on December 09, 2016 (GMT -0500)
Tri County

Weather History for KASJ - January, 2014

Change the Weather History Date:

Saturday, January 18, 2014

  Actual Average (KEMV) Record (KEMV)
Temperature  
Mean Temperature 34 °F -  
Max Temperature 45 °F 48 °F 72 °F (1990)
Min Temperature 23 °F 27 °F 8 °F (2003)
Degree Days  
Heating Degree Days 31    
Moisture  
Dew Point 22 °F    
Average Humidity 62    
Maximum Humidity 90    
Minimum Humidity 35    
Precipitation  
Precipitation 0.00 in - - ()
Sea Level Pressure  
Sea Level Pressure 29.95 in    
Wind  
Wind Speed 2 mph (West)    
Max Wind Speed 8 mph    
Max Gust Speed -    
Visibility 10 miles    
Events      
Averages and records for this station are not official NWS values.
T = Trace of Precipitation, MM = Missing Value Source: NWS Daily Summary

Daily Weather History Graph

Daily Weather History Graph

Search for Another Location

Airport or City:

Trip Planner

Search our weather history database for the weather conditions in past years. The results will help you decide how hot, cold, wet, or windy it might be!

Date:

Astronomy

Jan. 18, 2014 Rise Set
Actual Time 7:18 AM EST 5:20 PM EST
Civil Twilight 6:50 AM EST 5:48 PM EST
Nautical Twilight 6:18 AM EST 6:19 PM EST
Astronomical Twilight 5:48 AM EST 6:50 PM EST
Moon 7:54 PM EST (1/18) 8:22 AM EST (1/18)
Length of Visible Light 10h 57m
Length of Day
10h 02m
Waning Gibbous, 94% of the Moon is Illuminated
Jan 18
Waning Gibbous
Jan 24
Last Quarter
Jan 30
New
Feb 6
First Quarter
Feb 14
Full

Hourly Weather History & Observations

Time (EST) Temp. Windchill Dew Point Humidity Pressure Visibility Wind Dir Wind Speed Gust Speed Precip Events Conditions
12:15 AM 43.7 °F 42.1 °F 37.4 °F 78% 29.84 in 10.0 mi SSE 3.5 mph - N/A   Overcast
12:35 AM 44.4 °F - 37.6 °F 77% 29.83 in 10.0 mi Calm Calm - N/A   Overcast
12:55 AM 43.9 °F - 38.7 °F 82% 29.83 in 10.0 mi Calm Calm - N/A   Overcast
1:15 AM 44.2 °F - 40.6 °F 87% 29.83 in 10.0 mi Calm Calm - N/A   Overcast
1:35 AM 45.3 °F - 41.0 °F 85% 29.83 in 10.0 mi Calm Calm - N/A   Overcast
1:55 AM 45.1 °F - 39.7 °F 81% 29.80 in 10.0 mi Calm Calm - N/A   Scattered Clouds
2:15 AM 43.5 °F - 39.7 °F 87% 29.82 in 10.0 mi Calm Calm - N/A   Mostly Cloudy
2:35 AM 44.4 °F - 39.6 °F 83% 29.81 in 10.0 mi Calm Calm - N/A   Mostly Cloudy
2:55 AM 43.3 °F - 39.9 °F 88% 29.81 in 10.0 mi Calm Calm - N/A   Mostly Cloudy
3:15 AM 42.3 °F - 39.4 °F 90% 29.81 in 10.0 mi Calm Calm - N/A   Mostly Cloudy
3:35 AM 41.0 °F - 37.9 °F 89% 29.81 in 10.0 mi Calm Calm - N/A   Scattered Clouds
3:55 AM 43.0 °F - 36.5 °F 78% 29.82 in 10.0 mi Calm Calm - N/A   Clear
4:15 AM 40.6 °F 37.5 °F 32.7 °F 73% 29.83 in 10.0 mi WNW 4.6 mph - N/A   Clear
4:35 AM 39.0 °F 36.8 °F 31.5 °F 74% 29.83 in 10.0 mi WNW 3.5 mph - N/A   Clear
4:55 AM 37.9 °F 35.5 °F 31.1 °F 76% 29.85 in 10.0 mi WNW 3.5 mph - N/A   Clear
5:15 AM 37.4 °F 34.9 °F 30.9 °F 77% 29.85 in 10.0 mi NW 3.5 mph - N/A   Clear
5:35 AM 36.7 °F 34.1 °F 30.2 °F 77% 29.86 in 10.0 mi West 3.5 mph - N/A   Clear
5:55 AM 36.1 °F - 29.8 °F 78% 29.87 in 10.0 mi Calm Calm - N/A   Clear
6:15 AM 35.4 °F - 29.3 °F 78% 29.87 in 10.0 mi Calm Calm - N/A   Clear
6:35 AM 34.7 °F - 28.6 °F 78% 29.87 in 10.0 mi Calm Calm - N/A   Scattered Clouds
6:55 AM 34.0 °F - 27.5 °F 77% 29.88 in 10.0 mi Calm Calm - N/A   Clear
7:15 AM 33.8 °F - 25.2 °F 71% 29.88 in 10.0 mi Calm Calm - N/A   Clear
7:35 AM 32.5 °F - 24.8 °F 73% 29.90 in 10.0 mi Calm Calm - N/A   Clear
7:55 AM 33.3 °F 30.2 °F 24.4 °F 70% 29.91 in 10.0 mi WNW 3.5 mph - N/A   Clear
8:15 AM 33.8 °F 28.6 °F 23.4 °F 66% 29.91 in 10.0 mi NW 5.8 mph - N/A   Clear
8:35 AM 34.2 °F 30.0 °F 21.9 °F 61% 29.93 in 10.0 mi NW 4.6 mph - N/A   Clear
8:55 AM 34.3 °F 30.2 °F 21.4 °F 59% 29.95 in 10.0 mi NW 4.6 mph - N/A   Clear
9:15 AM 34.7 °F 28.8 °F 18.7 °F 52% 29.96 in 10.0 mi NW 6.9 mph - N/A   Clear
9:35 AM 34.9 °F 28.3 °F 16.5 °F 47% 29.97 in 10.0 mi WNW 8.1 mph - N/A   Clear
9:55 AM 35.6 °F 30.7 °F 16.3 °F 46% 29.98 in 10.0 mi NW 5.8 mph - N/A   Clear
10:15 AM 35.8 °F 30.9 °F 16.3 °F 45% 29.99 in 10.0 mi WNW 5.8 mph - N/A   Scattered Clouds
10:35 AM 36.7 °F 34.1 °F 17.8 °F 46% 29.99 in 10.0 mi West 3.5 mph - N/A   Scattered Clouds
10:55 AM 37.2 °F 33.6 °F 18.0 °F 46% 29.99 in 10.0 mi West 4.6 mph - N/A   Clear
11:15 AM 37.0 °F 34.5 °F 16.0 °F 42% 29.99 in 10.0 mi West 3.5 mph - N/A   Clear
11:35 AM 36.7 °F 34.1 °F 14.7 °F 41% 29.99 in 10.0 mi NW 3.5 mph - N/A   Clear
11:55 AM 37.8 °F 35.3 °F 16.7 °F 42% 29.98 in 10.0 mi SW 3.5 mph - N/A   Clear
12:15 PM 36.5 °F 32.7 °F 14.9 °F 41% 29.98 in 10.0 mi WSW 4.6 mph - N/A   Clear
12:35 PM 36.3 °F 30.8 °F 14.5 °F 41% 29.96 in 10.0 mi WNW 6.9 mph - N/A   Scattered Clouds
12:55 PM 37.0 °F 33.3 °F 14.9 °F 40% 29.95 in 10.0 mi West 4.6 mph - N/A   Scattered Clouds
1:15 PM 37.2 °F 34.7 °F 14.4 °F 39% 29.96 in 10.0 mi WSW 3.5 mph - N/A   Clear
1:35 PM 37.2 °F 31.9 °F 13.6 °F 38% 29.95 in 10.0 mi West 6.9 mph - N/A   Clear
1:55 PM 37.4 °F 33.8 °F 13.3 °F 37% 29.96 in 10.0 mi West 4.6 mph - N/A   Clear
2:15 PM 36.5 °F 33.9 °F 12.0 °F 37% 29.96 in 10.0 mi WSW 3.5 mph - N/A   Clear
2:35 PM 37.8 °F - 13.8 °F 38% 29.97 in 10.0 mi Calm Calm - N/A   Clear
2:55 PM 37.6 °F - 13.6 °F 38% 29.98 in 10.0 mi Calm Calm - N/A   Clear
3:15 PM 36.5 °F 32.7 °F 10.8 °F 35% 29.98 in 10.0 mi NW 4.6 mph - N/A   Clear
3:35 PM 36.1 °F - 11.3 °F 36% 29.99 in 10.0 mi Calm Calm - N/A   Clear
3:50 PM 35.6 °F 32.8 °F 10.2 °F 35% 29.99 in 10.0 mi SW 3.5 mph - N/A   Clear
4:15 PM 34.7 °F 31.8 °F 10.4 °F 37% 29.99 in 10.0 mi West 3.5 mph - N/A   Clear
4:35 PM 34.3 °F 28.4 °F 10.6 °F 37% 30.00 in 10.0 mi West 6.9 mph - N/A   Clear
4:55 PM 33.8 °F - 10.6 °F 38% 30.01 in 10.0 mi Calm Calm - N/A   Clear
5:15 PM 33.3 °F - 10.6 °F 39% 30.01 in 10.0 mi Calm Calm - N/A   Clear
5:35 PM 32.2 °F - 11.3 °F 42% 30.02 in 10.0 mi Calm Calm - N/A   Clear
5:55 PM 31.5 °F - 11.1 °F 43% 30.02 in 10.0 mi Calm Calm - N/A   Clear
6:15 PM 30.6 °F - 11.1 °F 44% 30.03 in 10.0 mi Calm Calm - N/A   Clear
6:35 PM 28.6 °F - 12.6 °F 51% 30.04 in 10.0 mi Calm Calm - N/A   Clear
6:55 PM 28.2 °F - 14.5 °F 57% 30.05 in 10.0 mi Calm Calm - N/A   Clear
7:15 PM 27.0 °F - 14.9 °F 60% 30.06 in 10.0 mi Calm Calm - N/A   Clear
7:35 PM 25.9 °F - 16.9 °F 69% 30.06 in 10.0 mi Calm Calm - N/A   Clear
7:55 PM 25.9 °F - 16.3 °F 67% 30.06 in 10.0 mi Calm Calm - N/A   Clear
8:15 PM 26.2 °F - 17.2 °F 69% 30.05 in 10.0 mi Calm Calm - N/A   Clear
8:35 PM 24.8 °F - 17.6 °F 74% 30.05 in 10.0 mi Calm Calm - N/A   Clear
8:55 PM 25.5 °F - 18.0 °F 73% 30.05 in 10.0 mi Calm Calm - N/A   Clear
9:15 PM 24.8 °F - 18.1 °F 76% 30.06 in 10.0 mi Calm Calm - N/A   Clear
9:35 PM 24.8 °F - 18.1 °F 76% 30.05 in 10.0 mi Calm Calm - N/A   Clear
9:55 PM 23.9 °F - 18.9 °F 81% 30.05 in 10.0 mi Calm Calm - N/A   Clear
10:15 PM 23.7 °F - 18.5 °F 80% 30.05 in 10.0 mi Calm Calm - N/A   Clear
10:35 PM 23.5 °F - 18.1 °F 80% 30.04 in 10.0 mi Calm Calm - N/A   Clear
10:55 PM 24.4 °F - 17.8 °F 76% 30.04 in 10.0 mi Calm Calm - N/A   Clear
11:15 PM 23.9 °F - 17.6 °F 77% 30.04 in 10.0 mi Calm Calm - N/A   Clear
11:35 PM 24.4 °F - 18.3 °F 78% 30.04 in 10.0 mi Calm Calm - N/A   Clear
11:55 PM 23.7 °F - 18.7 °F 81% 30.03 in 10.0 mi Calm Calm - N/A   Clear